Weather in Karamaly

Russia / Penza Oblast     53°37′32″N   46°07′52″E
temp.,
°C
wind,
m/s
gust,
m/s
humid.,
%
clouds,
%
prec.,
mm/h
press.,
hPa
HPBL,
m
17 may, mon
mon1700:00+17se116517 0.0 101511
03:00+16se22675 0.0 101625
06:00+18se126491 0.0 101673
09:00+24ssw455054 0.0 1017443
12:00+28ssw353865 0.0 1017959
15:00+29ssw453087 0.0 10162999
18:00+25sw115398 0.0 101611
21:00+18ene396769 0.0 1017134
18 may, tue
tue1800:00+16ese34645 0.0 101757
03:00+15ese226311 0.0 101618
06:00+18ese266231 0.0 1016139
09:00+24ese584213 0.0 1016447
12:00+28se69324 0.0 10161082
15:00+29se56360 0.0 10151176
18:00+25se37530 0.0 1015161
21:00+19e37605 0.0 101596
19 may, wed
wed1900:00+17e37506 0.0 1015104
03:00+16ese411463 0.0 1015181
06:00+18ese412582 0.0 1015245
09:00+24ese69472 0.0 1015504
12:00+28ese69371 0.0 10141797
15:00+28se69390 0.0 10132953
18:00+24e49572 0.0 1013255
21:00+21ese71551100 0.0 1014368
20 may, thu
thu2000:00+19ese717640 0.0 1014593
03:00+18se717620 0.0 1014615
06:00+17se7156754 0.0 1014541
09:00+21sse8125755 0.0 1015934
12:00+24se710520 0.0 10151467
15:00+25se795195 0.0 10152117
18:00+21sse496569 0.1 1016344
21:00+16sse396616 0.1 1016178
21 may, fri
fri2100:00+15sw2386100 0.0 101753
03:00+16sw2681100 0.0 1018229
06:00+16sw25797 0.0 1019275
09:00+19sw455810 0.0 1020937
12:00+22wsw454967 0.0 10201549
15:00+23sw2347100 0.0 10201818
18:00+21wnw236191 0.0 1020237
21:00+17n227159 0.0 102119